When you browse on this site, cookies collect data to enhance your experience and personalize the content and advertising you see.
Visit our Privacy Policy to learn more. By continuing to use the site, you agree to this use of cookies and data.
  • In Hungary
  • List of Countries
  • For 7 days
  • Water Temperature
  • Satellite Maps
  • Weather Map
  • News
  • Weather Widgets
  • user-avatar
    Login

    Hourly Weather Carlisle

    Today, 17 November, Saturday

    Time Temperature Precipitation Wind Pressure Humidity
    00:00 +8°C° 0 mm 3 mps 767 mmHg 95%
    01:00 +8°C° 0 mm 3 mps 767 mmHg 95%
    02:00 +7°C° 0 mm 3 mps 768 mmHg 95%
    03:00 +7°C° 0 mm 3 mps 768 mmHg 95%
    04:00 +7°C° 0 mm 3 mps 768 mmHg 94%
    05:00 +7°C° 0 mm 3 mps 768 mmHg 94%
    06:00 +7°C° 0 mm 3 mps 768 mmHg 94%
    07:00 +7°C° 0 mm 3 mps 768 mmHg 94%
    08:00 +7°C° 0 mm 3 mps 768 mmHg 94%
    09:00 +7°C° 0 mm 3 mps 769 mmHg 93%
    10:00 +8°C° 0 mm 3 mps 769 mmHg 88%
    11:00 +10°C° 0 mm 3 mps 769 mmHg 83%
    12:00 +11°C° 0 mm 4 mps 769 mmHg 78%
    13:00 +11°C° 0 mm 4 mps 769 mmHg 79%
    14:00 +11°C° 0 mm 4 mps 769 mmHg 80%
    15:00 +10°C° 0 mm 3 mps 769 mmHg 81%
    16:00 +9°C° 0 mm 3 mps 769 mmHg 84%
    17:00 +8°C° 0 mm 3 mps 769 mmHg 86%
    18:00 +7°C° 0 mm 3 mps 769 mmHg 89%
    19:00 +6°C° 0 mm 4 mps 769 mmHg 89%
    20:00 +6°C° 0 mm 4 mps 770 mmHg 89%
    21:00 +6°C° 0 mm 4 mps 770 mmHg 90%
    22:00 +5°C° 0 mm 4 mps 770 mmHg 90%
    23:00 +5°C° 0 mm 3 mps 770 mmHg 90%

    Tomorrow, 18 November, Sunday

    Time Temperature Precipitation Wind Pressure Humidity
    00:00 +5°C° 0 mm 3 mps 771 mmHg 91%
    01:00 +5°C° 0 mm 3 mps 771 mmHg 91%
    02:00 +5°C° 0 mm 3 mps 771 mmHg 91%
    03:00 +4°C° 0 mm 3 mps 771 mmHg 91%
    04:00 +4°C° 0 mm 3 mps 771 mmHg 91%
    05:00 +4°C° 0 mm 3 mps 771 mmHg 91%
    06:00 +4°C° 0 mm 3 mps 771 mmHg 91%
    07:00 +4°C° 0 mm 3 mps 771 mmHg 90%
    08:00 +5°C° 0 mm 3 mps 772 mmHg 89%
    09:00 +5°C° 0 mm 3 mps 772 mmHg 88%
    10:00 +7°C° 0 mm 3 mps 772 mmHg 82%
    11:00 +7°C° 0 mm 4 mps 772 mmHg 76%
    12:00 +10°C° 0 mm 4 mps 772 mmHg 70%
    13:00 +8°C° 0 mm 4 mps 772 mmHg 71%
    14:00 +8°C° 0 mm 4 mps 772 mmHg 73%
    15:00 +8°C° 0 mm 4 mps 771 mmHg 74%
    16:00 +7°C° 0 mm 4 mps 771 mmHg 76%
    17:00 +6°C° 0 mm 4 mps 771 mmHg 78%
    18:00 +5°C° 0 mm 4 mps 771 mmHg 81%
    19:00 +5°C° 0 mm 4 mps 771 mmHg 82%
    20:00 +5°C° 0 mm 4 mps 771 mmHg 84%
    21:00 +5°C° 0 mm 4 mps 771 mmHg 85%
    22:00 +5°C° 0 mm 4 mps 771 mmHg 87%
    23:00 +5°C° 0 mm 4 mps 771 mmHg 88%

    Day after tomorrow, 19 November, Monday

    Time Temperature Precipitation Wind Pressure Humidity
    00:00 +5°C° 0 mm 3 mps 771 mmHg 89%
    01:00 +5°C° 0 mm 4 mps 771 mmHg 91%
    02:00 +5°C° 0 mm 4 mps 770 mmHg 92%
    03:00 +5°C° 0 mm 4 mps 770 mmHg 93%
    04:00 +6°C° 0 mm 4 mps 770 mmHg 92%
    05:00 +6°C° 0 mm 4 mps 770 mmHg 91%
    06:00 +6°C° 0 mm 4 mps 769 mmHg 91%
    07:00 +6°C° 0 mm 4 mps 769 mmHg 89%
    08:00 +7°C° 0 mm 4 mps 769 mmHg 88%
    09:00 +7°C° 0 mm 4 mps 769 mmHg 87%
    10:00 +7°C° 0 mm 5 mps 769 mmHg 83%
    11:00 +7°C° 0 mm 5 mps 769 mmHg 80%
    12:00 +8°C° 0 mm 6 mps 769 mmHg 76%
    13:00 +7°C° 0 mm 6 mps 769 mmHg 76%
    14:00 +7°C° 0 mm 5 mps 769 mmHg 77%
    15:00 +7°C° 0 mm 5 mps 769 mmHg 77%
    16:00 +6°C° 0 mm 5 mps 768 mmHg 80%
    17:00 +5°C° 0 mm 5 mps 768 mmHg 83%
    18:00 +5°C° 0 mm 4 mps 768 mmHg 85%
    19:00 +4°C° 0 mm 4 mps 768 mmHg 86%
    20:00 +4°C° 0 mm 4 mps 769 mmHg 86%
    21:00 +4°C° 0 mm 4 mps 769 mmHg 86%
    22:00 +4°C° 0 mm 4 mps 769 mmHg 86%
    23:00 +4°C° 0 mm 4 mps 769 mmHg 86%

    20 November, Tuesday

    Time Temperature Precipitation Wind Pressure Humidity
    00:00 +4°C° 0 mm 4 mps 769 mmHg 86%
    01:00 +4°C° 0 mm 4 mps 768 mmHg 86%
    02:00 +4°C° 0 mm 4 mps 768 mmHg 85%
    03:00 +4°C° 0 mm 4 mps 768 mmHg 85%
    04:00 +4°C° 0 mm 4 mps 768 mmHg 84%
    05:00 +4°C° 0 mm 3 mps 768 mmHg 84%
    06:00 +3°C° 0 mm 3 mps 768 mmHg 84%
    07:00 +3°C° 0 mm 3 mps 768 mmHg 84%
    08:00 +3°C° 0 mm 3 mps 768 mmHg 84%
    09:00 +3°C° 0 mm 3 mps 768 mmHg 84%
    10:00 +4°C° 0 mm 4 mps 768 mmHg 80%
    11:00 +5°C° 0 mm 4 mps 768 mmHg 77%
    12:00 +6°C° 0 mm 5 mps 768 mmHg 73%
    13:00 +6°C° 0 mm 5 mps 768 mmHg 74%
    14:00 +5°C° 0 mm 4 mps 768 mmHg 75%
    15:00 +5°C° 0 mm 4 mps 768 mmHg 77%
    16:00 +4°C° 0 mm 4 mps 768 mmHg 80%
    17:00 +3°C° 0 mm 3 mps 768 mmHg 83%
    18:00 +3°C° 0 mm 3 mps 768 mmHg 87%
    19:00 +2°C° 0 mm 3 mps 768 mmHg 87%
    20:00 +2°C° 0 mm 3 mps 767 mmHg 87%
    21:00 +2°C° 0 mm 3 mps 767 mmHg 88%
    22:00 +2°C° 0 mm 3 mps 767 mmHg 89%
    23:00 +2°C° 0 mm 3 mps 767 mmHg 89%

    21 November, Wednesday

    Time Temperature Precipitation Wind Pressure Humidity
    00:00 +3°C° 0 mm 2 mps 767 mmHg 90%
    01:00 +3°C° 0 mm 2 mps 767 mmHg 90%
    02:00 +4°C° 0 mm 2 mps 766 mmHg 90%
    03:00 +4°C° 0 mm 2 mps 766 mmHg 90%
    04:00 +4°C° 0 mm 2 mps 765 mmHg 90%
    05:00 +4°C° 0 mm 2 mps 765 mmHg 91%
    06:00 +4°C° 0 mm 3 mps 765 mmHg 92%
    07:00 +4°C° 0 mm 3 mps 765 mmHg 91%
    08:00 +4°C° 0 mm 3 mps 765 mmHg 91%
    09:00 +4°C° 0 mm 4 mps 765 mmHg 91%
    10:00 +5°C° 0.1 mm 4 mps 764 mmHg 88%
    11:00 +6°C° 0.1 mm 4 mps 764 mmHg 84%
    12:00 +7°C° 0.1 mm 5 mps 764 mmHg 81%
    13:00 +6°C° 0.1 mm 5 mps 764 mmHg 81%
    14:00 +6°C° 0.1 mm 5 mps 764 mmHg 81%
    15:00 +5°C° 0.1 mm 5 mps 763 mmHg 80%
    16:00 +5°C° 0.1 mm 4 mps 764 mmHg 81%
    17:00 +4°C° 0.1 mm 4 mps 764 mmHg 82%
    18:00 +3°C° 0.1 mm 4 mps 764 mmHg 83%
    19:00 +3°C° 0 mm 4 mps 764 mmHg 84%
    20:00 +3°C° 0 mm 4 mps 765 mmHg 85%
    21:00 +1°C° 0 mm 4 mps 765 mmHg 85%
    22:00 +1°C° 0 mm 4 mps 765 mmHg 86%
    23:00 +1°C° 0 mm 4 mps 765 mmHg 86%

    22 November, Thursday

    Time Temperature Precipitation Wind Pressure Humidity
    00:00 +1°C° 0 mm 4 mps 765 mmHg 87%
    01:00 +2°C° 0 mm 3 mps 765 mmHg 87%
    02:00 +2°C° 0 mm 3 mps 765 mmHg 87%
    03:00 +2°C° 0 mm 3 mps 765 mmHg 88%
    04:00 +2°C° 0 mm 3 mps 766 mmHg 88%
    05:00 +1°C° 0 mm 4 mps 766 mmHg 88%
    06:00 +1°C° 0 mm 4 mps 766 mmHg 88%
    07:00 +1°C° 0 mm 4 mps 766 mmHg 87%
    08:00 +3°C° 0 mm 4 mps 767 mmHg 86%
    09:00 +3°C° 0 mm 4 mps 767 mmHg 86%
    10:00 +3°C° 0.1 mm 5 mps 767 mmHg 84%
    11:00 +5°C° 0.1 mm 5 mps 767 mmHg 82%
    12:00 +5°C° 0.1 mm 6 mps 767 mmHg 80%
    13:00 +5°C° 0.2 mm 6 mps 767 mmHg 81%
    14:00 +4°C° 0.2 mm 6 mps 767 mmHg 82%
    15:00 +4°C° 0.2 mm 6 mps 767 mmHg 83%
    16:00 +4°C° 0.2 mm 6 mps 767 mmHg 84%
    17:00 +4°C° 0.2 mm 6 mps 767 mmHg 84%
    18:00 +4°C° 0.2 mm 6 mps 767 mmHg 84%
    19:00 +4°C° 0.1 mm 6 mps 767 mmHg 84%
    20:00 +4°C° 0.1 mm 6 mps 768 mmHg 84%
    21:00 +4°C° 0.1 mm 6 mps 768 mmHg 84%
    22:00 +4°C° 0.1 mm 6 mps 768 mmHg 84%
    23:00 +4°C° 0.1 mm 6 mps 768 mmHg 84%
    Show more